Back to catalog

STARLINK-34208

AliveCommunicationsVLEO
NORAD 64740·PAYLOAD·🇺🇸 United States

Launched Jul 2, 2025 from Cape Canaveral Space Force Station

Loading…

Next Passes (next 24 hours)

TLE

FreshSource: CelesTrak SupGP

Epoch: Sep 15, 2026, 02:31 UTC

1 64740C 25144S   26258.10534722  .00038145  00000+0  11271-2 0  2586
2 64740  53.1597  14.6778 0001213  94.4332 296.5589 15.34368091    13

Track STARLINK-34208 in real time with AllMySat

Download on the App Store